Weather History for Athens, OH

Change the Weather History Date:

Sunday, March 24, 2013

  Actual Average (KPKB) Record (KPKB)
Temperature  
Mean Temperature 36 °F 46 °F  
Max Temperature 39 °F 57 °F 86 °F (1910)
Min Temperature 32 °F 35 °F 6 °F (1986)
Degree Days  
Heating Degree Days 30 19  
Month to date heating degree days 548  
Since 1 July heating degree days 4338  
Cooling Degree Days 0 0  
Month to date cooling degree days 0  
Year to date cooling degree days 0  
Moisture  
Dew Point 26 °F    
Average Humidity 74    
Maximum Humidity 99    
Minimum Humidity 47    
Precipitation  
Precipitation 0.00 in 0.12 in 0.59 in (2013)
Month to date precipitation 2.85  
Year to date precipitation 8.50  
Sea Level Pressure  
Sea Level Pressure 29.67 in    
Wind  
Wind Speed 8 mph (NE)    
Max Wind Speed 15 mph    
Max Gust Speed 22 mph    
Visibility 8 miles    
Events Rain , Snow , Thunderstorm    
T = Trace of Precipitation, MM = Missing Value Source: NWS Daily Summary

Daily Weather History Graph

Daily Weather History Graph

Search for Another Location

Airport:

Trip Planner

Search our weather history database for the weather conditions in past years. The results will help you decide how hot, cold, wet, or windy it might be!

Date:

Astronomy

Mar. 24, 2013 Rise Set
Actual Time 7:25 AM EDT 7:45 PM EDT
Civil Twilight 6:58 AM EDT 8:11 PM EDT
Nautical Twilight 6:27 AM EDT 8:43 PM EDT
Astronomical Twilight 5:55 AM EDT 9:15 PM EDT
Moon 5:12 PM EDT (3/24) 5:34 AM EDT (3/24)
Length of Visible Light 13h 13m
Length of Day
12h 19m
Waxing Gibbous, 91% of the Moon is Illuminated
Mar 24
Waxing Gibbous
Mar 27
Full
Apr 3
Last Quarter
Apr 10
New
Apr 18
First Quarter

Hourly Weather History & Observations

Time (EDT) Temp. Windchill Dew Point Humidity Pressure Visibility Wind Dir Wind Speed Gust Speed Precip Events Conditions
12:15 AM 32.0 °F 25.6 °F 21.2 °F 64% 29.89 in 10.0 mi NE 6.9 mph - N/A   Clear
12:35 AM 35.4 °F 32.6 °F 20.5 °F 55% 29.91 in 10.0 mi ENE 3.5 mph - N/A   Clear
12:55 AM 33.1 °F 28.7 °F 21.2 °F 62% 29.90 in 10.0 mi ENE 4.6 mph - N/A   Clear
1:15 AM 34.0 °F 28.8 °F 21.6 °F 60% 29.90 in 10.0 mi ENE 5.8 mph - N/A   Clear
1:35 AM 34.3 °F 29.2 °F 21.6 °F 60% 29.90 in 10.0 mi ENE 5.8 mph - N/A   Clear
1:55 AM 33.6 °F 28.4 °F 22.5 °F 64% 29.90 in 10.0 mi NE 5.8 mph - N/A   Clear
2:15 AM 34.2 °F 28.2 °F 23.2 °F 64% 29.88 in 10.0 mi NE 6.9 mph - N/A   Clear
2:35 AM 34.2 °F 27.5 °F 23.2 °F 64% 29.89 in 10.0 mi NE 8.1 mph - N/A   Clear
2:55 AM 34.2 °F 27.5 °F 23.2 °F 64% 29.89 in 10.0 mi ENE 8.1 mph - N/A   Clear
3:15 AM 34.7 °F 28.8 °F 23.4 °F 63% 29.89 in 10.0 mi NE 6.9 mph - N/A   Clear
3:35 AM 34.2 °F 28.2 °F 23.0 °F 64% 29.90 in 10.0 mi ENE 6.9 mph - N/A   Clear
3:55 AM 34.7 °F 29.6 °F 22.8 °F 62% 29.91 in 10.0 mi NE 5.8 mph - N/A   Clear
4:15 AM 34.7 °F 28.1 °F 22.5 °F 61% 29.90 in 10.0 mi NE 8.1 mph - N/A   Clear
4:35 AM 34.9 °F 28.3 °F 22.3 °F 60% 29.89 in 10.0 mi NE 8.1 mph - N/A   Clear
4:55 AM 34.7 °F 27.5 °F 22.3 °F 61% 29.86 in 10.0 mi NE 9.2 mph - N/A   Clear
5:15 AM 34.7 °F 27.5 °F 22.1 °F 60% 29.85 in 10.0 mi NE 9.2 mph - N/A   Clear
5:35 AM 34.3 °F 26.5 °F 22.5 °F 62% 29.84 in 10.0 mi NE 10.4 mph - N/A   Clear
5:55 AM 34.2 °F 27.5 °F 22.6 °F 63% 29.84 in 10.0 mi NE 8.1 mph - N/A   Clear
6:15 AM 34.0 °F 27.2 °F 22.6 °F 63% 29.84 in 10.0 mi NE 8.1 mph - N/A   Clear
6:35 AM 34.3 °F 27.7 °F 22.1 °F 61% 29.84 in 10.0 mi NE 8.1 mph - N/A   Clear
6:55 AM 34.0 °F 26.0 °F 22.1 °F 62% 29.82 in 10.0 mi ENE 10.4 mph - N/A   Clear
7:15 AM 33.8 °F 25.3 °F 21.7 °F 61% 29.81 in 10.0 mi NE 11.5 mph 17.3 mph N/A   Clear
7:35 AM 33.8 °F 26.4 °F 21.7 °F 61% 29.79 in 10.0 mi NE 9.2 mph - N/A   Clear
7:55 AM 33.8 °F 25.8 °F 21.4 °F 60% 29.78 in 10.0 mi NE 10.4 mph - N/A   Clear
8:15 AM 33.8 °F 25.8 °F 21.6 °F 61% 29.77 in 10.0 mi NE 10.4 mph - N/A   Clear
8:35 AM 34.3 °F 26.5 °F 21.2 °F 59% 29.77 in 10.0 mi ENE 10.4 mph - N/A   Clear
8:55 AM 34.7 °F 26.4 °F 21.2 °F 58% 29.77 in 10.0 mi ENE 11.5 mph - N/A   Clear
9:15 AM 34.9 °F 26.6 °F 21.2 °F 57% 29.76 in 10.0 mi ENE 11.5 mph - N/A   Clear
9:35 AM 35.1 °F 25.5 °F 21.0 °F 57% 29.74 in 10.0 mi NE 15.0 mph - N/A   Clear
9:55 AM 35.6 °F 27.5 °F 21.2 °F 56% 29.73 in 10.0 mi ENE 11.5 mph - N/A   Scattered Clouds
10:15 AM 36.0 °F 27.1 °F 21.2 °F 55% 29.71 in 10.0 mi ENE 13.8 mph - N/A   Mostly Cloudy
10:35 AM 36.5 °F 28.2 °F 21.4 °F 54% 29.70 in 10.0 mi ENE 12.7 mph 16.1 mph N/A   Overcast
10:55 AM 36.9 °F 29.1 °F 21.2 °F 53% 29.69 in 10.0 mi NE 11.5 mph - N/A   Overcast
11:15 AM 37.6 °F 30.0 °F 21.2 °F 52% 29.67 in 10.0 mi NE 11.5 mph - N/A   Overcast
11:35 AM 38.5 °F 30.7 °F 21.0 °F 50% 29.68 in 10.0 mi NE 12.7 mph - N/A   Overcast
11:55 AM 39.2 °F 33.0 °F 21.7 °F 50% 29.67 in 10.0 mi NE 9.2 mph - N/A   Overcast
12:15 PM 38.8 °F 32.1 °F 20.7 °F 48% 29.67 in 10.0 mi NE 10.4 mph - N/A   Overcast
12:35 PM 39.2 °F 32.5 °F 20.5 °F 47% 29.66 in 10.0 mi NE 10.4 mph - N/A   Overcast
12:55 PM 39.7 °F 34.3 °F 21.2 °F 48% 29.66 in 10.0 mi NE 8.1 mph - N/A   Overcast
1:15 PM 39.2 °F 33.0 °F 22.5 °F 51% 29.67 in 10.0 mi NE 9.2 mph - N/A   Overcast
1:35 PM 35.4 °F 28.4 °F 27.9 °F 74% 29.67 in 3.0 mi NE 9.2 mph - N/A Snow Light Snow
1:55 PM 32.9 °F 25.9 °F 30.4 °F 90% 29.66 in 2.0 mi NE 8.1 mph - N/A Snow Light Snow
2:15 PM 32.2 °F 25.8 °F 30.9 °F 95% 29.64 in 1.8 mi NE 6.9 mph - N/A Snow Light Snow
2:35 PM 32.2 °F 23.8 °F 31.1 °F 96% 29.64 in 3.0 mi NE 10.4 mph - N/A Snow Light Snow
2:55 PM 32.2 °F 24.4 °F 31.1 °F 96% 29.62 in 2.0 mi NE 9.2 mph - N/A Snow Light Snow
3:15 PM 32.2 °F 23.2 °F 31.5 °F 97% 29.60 in 1.8 mi NE 11.5 mph - N/A Snow Light Snow
3:35 PM 32.4 °F 24.6 °F 31.6 °F 97% 29.59 in 1.5 mi NE 9.2 mph - N/A Snow Light Snow
3:55 PM 32.9 °F 24.7 °F 32.0 °F 96% 29.57 in 1.0 mi ENE 10.4 mph - N/A Snow Light Snow
4:15 PM 33.1 °F 24.9 °F 32.0 °F 96% 29.56 in 3.0 mi ENE 10.4 mph - N/A Snow Light Snow
4:35 PM 33.4 °F 24.8 °F 32.0 °F 94% 29.54 in 7.0 mi ENE 11.5 mph - N/A Rain Light Rain
4:55 PM 33.8 °F 24.3 °F 32.0 °F 93% 29.54 in 10.0 mi ENE 13.8 mph - N/A Rain Light Rain
5:15 PM 33.8 °F 24.3 °F 32.0 °F 93% 29.52 in 10.0 mi ENE 13.8 mph 21.9 mph N/A   Overcast
5:35 PM 33.8 °F 24.3 °F 32.0 °F 93% 29.51 in 10.0 mi ENE 13.8 mph 18.4 mph N/A   Overcast
5:55 PM 34.0 °F 26.6 °F 32.0 °F 92% 29.52 in 10.0 mi ENE 9.2 mph - N/A   Overcast
6:15 PM 34.2 °F 26.2 °F 32.0 °F 92% 29.51 in 10.0 mi ENE 10.4 mph - N/A   Overcast
6:35 PM 34.0 °F 25.5 °F 32.0 °F 92% 29.50 in 10.0 mi ENE 11.5 mph - N/A   Overcast
6:55 PM 33.8 °F 26.4 °F 32.0 °F 93% 29.50 in 10.0 mi ENE 9.2 mph - N/A Thunderstorm Overcast
7:15 PM 33.8 °F 25.3 °F 32.0 °F 93% 29.49 in 10.0 mi ENE 11.5 mph - N/A   Overcast
7:35 PM 34.0 °F 26.0 °F 32.0 °F 92% 29.49 in 10.0 mi ENE 10.4 mph - N/A   Overcast
7:55 PM 33.8 °F 26.4 °F 32.0 °F 93% 29.48 in 5.0 mi ENE 9.2 mph - N/A   Overcast
8:15 PM 33.8 °F 25.3 °F 32.0 °F 93% 29.45 in 7.0 mi ENE 11.5 mph - N/A   Overcast
8:35 PM 33.8 °F 26.4 °F 32.0 °F 93% 29.44 in 10.0 mi ENE 9.2 mph - N/A   Overcast
8:55 PM 34.3 °F 29.2 °F 32.0 °F 91% 29.45 in 10.0 mi East 5.8 mph - N/A   Overcast
9:15 PM 34.0 °F 28.0 °F 32.0 °F 92% 29.45 in 4.0 mi ENE 6.9 mph - N/A Rain Light Rain
9:35 PM 32.9 °F 26.7 °F 31.6 °F 95% 29.44 in 4.0 mi ENE 6.9 mph - N/A Rain Rain
9:55 PM 32.5 °F 28.1 °F 31.6 °F 96% 29.44 in 3.0 mi NE 4.6 mph - N/A Snow Light Snow
10:15 PM 32.4 °F 27.9 °F 31.6 °F 97% 29.44 in 2.5 mi ENE 4.6 mph - N/A Snow Light Snow
10:35 PM 32.2 °F - 31.6 °F 98% 29.44 in 3.0 mi Calm Calm - N/A Snow Light Snow
10:55 PM 32.2 °F - 31.8 °F 99% 29.44 in 3.0 mi Calm Calm - N/A Rain Rain
11:15 PM 32.0 °F 28.7 °F 31.5 °F 98% 29.43 in 4.0 mi ENE 3.5 mph - N/A Snow Light Snow
11:35 PM 32.0 °F 27.5 °F 31.5 °F 98% 29.42 in 3.0 mi ENE 4.6 mph - N/A Rain Rain
11:55 PM 32.0 °F 27.5 °F 31.6 °F 99% 29.41 in 4.0 mi NE 4.6 mph - N/A Rain Light Rain